This is the latest recevied weather packets stored in our database for station/object N1HQ. If no packets are shown the sender has not sent any weather packets the latest 10 day(s).
| Time | Temp. | Humidity | Pressure | Rain* | Wind** | Luminosity | Snow |
|---|---|---|---|---|---|---|---|
| 1788113213 | 31.67° C | 76% | 1015.7 hPa | 0 mm | - | - | - |
| 1788112953 | 31.67° C | 76% | 1016 hPa | 0 mm | - | - | - |
| 1788112655 | 32.22° C | 76% | 1016 hPa | 0 mm | - | - | - |
| 1788112408 | 32.22° C | 77% | 1016.1 hPa | 0 mm | - | - | - |
| 1788112108 | 32.22° C | 78% | 1016.2 hPa | 0 mm | - | - | - |
| 1788111846 | 32.22° C | 81% | 1016 hPa | 0 mm | - | - | - |
| 1788111563 | 31.67° C | 79% | 1016 hPa | 0 mm | - | - | - |
| 1788111288 | 31.67° C | 78% | 1016.1 hPa | 0 mm | - | - | - |
| 1788111008 | 31.67° C | 80% | 1016.2 hPa | 0 mm | - | - | - |
| 1788110722 | 31.67° C | 82% | 1016.2 hPa | 0 mm | - | - | - |
| 1788110482 | 31.11° C | 81% | 1016.3 hPa | 0 mm | - | - | - |
| 1788110243 | 31.11° C | 82% | 1016.3 hPa | 0 mm | - | - | - |
| 1788109968 | 30.56° C | 82% | 1016.3 hPa | 0 mm | - | - | - |
| 1788109678 | 30.56° C | 84% | 1016.5 hPa | 0 mm | - | - | - |
| 1788109408 | 30.56° C | 82% | 1016.5 hPa | 0 mm | - | - | - |
| 1788109116 | 30.56° C | 82% | 1016.6 hPa | 0 mm | - | - | - |
| 1788108856 | 30.56° C | 83% | 1016.6 hPa | 0 mm | - | - | - |
| 1788108565 | 30.56° C | 83% | 1016.5 hPa | 0 mm | - | - | - |
| 1788108273 | 30.56° C | 82% | 1016.6 hPa | 0 mm | - | - | - |
| 1788108027 | 30.56° C | 83% | 1016.7 hPa | 0 mm | - | - | - |
| 1788107748 | 30.56° C | 84% | 1016.8 hPa | 0 mm | - | - | - |
| 1788107482 | 30.56° C | 84% | 1016.9 hPa | 0 mm | - | - | - |
| 1788107217 | 30.56° C | 83% | 1017 hPa | 0 mm | - | - | - |
| 1788106926 | 30.56° C | 84% | 1017 hPa | 0 mm | - | - | - |
| 1788106653 | 30.56° C | 85% | 1017.1 hPa | 0 mm | - | - | - |
* Rain latest hour (hover to see other rain measurements)
** Current wind speed in m/s (hover to see current wind gust speed)